This is the latest recevied weather packets stored in our database for station/object N8DMH-13. If no packets are shown the sender has not sent any weather packets the latest 1 day(s).
| Time | Temp. | Humidity | Pressure | Rain* | Wind** | Luminosity | Snow |
|---|---|---|---|---|---|---|---|
| 1777993743 | 10° C | 47% | 1005.6 hPa | 0 mm | 2.68 m/s, 248° | - | - |
| 1777993443 | 10° C | 48% | 1005.6 hPa | 0 mm | 2.68 m/s, 248° | - | - |
| 1777993112 | 10.56° C | 47% | 1005.7 hPa | 0 mm | 2.24 m/s, 248° | - | - |
| 1777992782 | 10.56° C | 46% | 1005.7 hPa | 0 mm | 2.24 m/s, 270° | - | - |
| 1777992482 | 10° C | 47% | 1005.6 hPa | 0 mm | 2.24 m/s, 248° | - | - |
| 1777992153 | 10° C | 47% | 1005.6 hPa | 0 mm | 2.68 m/s, 248° | - | - |
| 1777991822 | 10° C | 46% | 1005.5 hPa | 0 mm | 2.24 m/s, 248° | - | - |
| 1777991522 | 10° C | 46% | 1005.5 hPa | 0 mm | 1.79 m/s, 248° | - | - |
| 1777991222 | 10° C | 47% | 1005.5 hPa | 0 mm | 2.24 m/s, 248° | - | - |
| 1777990892 | 10° C | 46% | 1005.4 hPa | 0 mm | 1.79 m/s, 248° | - | - |
| 1777990592 | 10° C | 52% | 1005.5 hPa | 0 mm | 1.79 m/s, 248° | - | - |
| 1777990262 | 9.44° C | 51% | 1005.5 hPa | 0 mm | 1.79 m/s, 248° | - | - |
| 1777989962 | 9.44° C | 50% | 1005.4 hPa | 0 mm | 2.24 m/s, 225° | - | - |
| 1777989631 | 9.44° C | 53% | 1005.4 hPa | 0 mm | 1.79 m/s, 248° | - | - |
| 1777989301 | 8.89° C | 52% | 1005.2 hPa | 0 mm | 2.24 m/s, 248° | - | - |
| 1777988971 | 8.89° C | 52% | 1005.2 hPa | 0 mm | 2.68 m/s, 248° | - | - |
| 1777988671 | 8.89° C | 55% | 1005.1 hPa | 0 mm | 2.24 m/s, 248° | - | - |
| 1777988341 | 8.33° C | 56% | 1005 hPa | 0 mm | 1.79 m/s, 225° | - | - |
| 1777988041 | 8.33° C | 55% | 1004.9 hPa | 0 mm | 1.79 m/s, 248° | - | - |
| 1777987741 | 8.33° C | 57% | 1004.9 hPa | 0 mm | 1.79 m/s, 225° | - | - |
| 1777987441 | 8.33° C | 59% | 1004.8 hPa | 0 mm | 1.34 m/s, 225° | - | - |
| 1777987111 | 7.78° C | 60% | 1004.9 hPa | 0 mm | 1.34 m/s, 225° | - | - |
| 1777986811 | 7.78° C | 60% | 1004.8 hPa | 0 mm | 1.34 m/s, 225° | - | - |
| 1777986481 | 7.78° C | 60% | 1004.6 hPa | 0 mm | 1.34 m/s, 248° | - | - |
| 1777986186 | 7.78° C | 63% | 1004.6 hPa | 0 mm | 1.34 m/s, 225° | - | - |
* Rain latest hour (hover to see other rain measurements)
** Current wind speed in m/s (hover to see current wind gust speed)